When you browse on this site, cookies collect data to enhance your experience and personalize the content and advertising you see.
Visit our Privacy Policy to learn more. By continuing to use the site, you agree to this use of cookies and data.
  • In Spain
  • List of Countries
  • For 7 days
  • Water Temperature
  • Weather Map
  • Weather Widgets
  • user-avatar
    Login

    Hourly Weather Escaldes-Engordany

    Today, 23 August, Friday

    Time Temperature Precipitation Wind Pressure Humidity
    00:00 +12°C° 0 mm 1 mps 642 mmHg 62%
    01:00 +12°C° 0 mm 1 mps 642 mmHg 65%
    02:00 +12°C° 0 mm 1 mps 642 mmHg 69%
    03:00 +12°C° 0 mm 1 mps 642 mmHg 72%
    04:00 +12°C° 0 mm 1 mps 642 mmHg 76%
    05:00 +12°C° 0 mm 1 mps 642 mmHg 79%
    06:00 +13°C° 0 mm 1 mps 642 mmHg 81%
    07:00 +16°C° 0 mm 1 mps 643 mmHg 68%
    08:00 +20°C° 0 mm 1 mps 644 mmHg 56%
    09:00 +22°C° 0 mm 1 mps 645 mmHg 43%
    10:00 +23°C° 0 mm 1 mps 646 mmHg 40%
    11:00 +24°C° 0 mm 1 mps 646 mmHg 37%
    12:00 +25°C° 0 mm 2 mps 646 mmHg 34%
    13:00 +25°C° 0 mm 2 mps 645 mmHg 36%
    14:00 +25°C° 0 mm 2 mps 645 mmHg 37%
    15:00 +25°C° 0 mm 2 mps 645 mmHg 38%
    16:00 +24°C° 0 mm 1 mps 644 mmHg 47%
    17:00 +22°C° 0 mm 1 mps 643 mmHg 55%
    18:00 +18°C° 0 mm 0 mps 643 mmHg 63%
    19:00 +19°C° 0 mm 1 mps 642 mmHg 68%
    20:00 +16°C° 0 mm 1 mps 642 mmHg 72%
    21:00 +15°C° 0 mm 1 mps 642 mmHg 77%
    22:00 +15°C° 0 mm 1 mps 642 mmHg 77%
    23:00 +15°C° 0 mm 1 mps 642 mmHg 76%

    Tomorrow, 24 August, Saturday

    Time Temperature Precipitation Wind Pressure Humidity
    00:00 +14°C° 0 mm 1 mps 641 mmHg 76%
    01:00 +14°C° 0 mm 1 mps 641 mmHg 75%
    02:00 +14°C° 0 mm 1 mps 641 mmHg 75%
    03:00 +14°C° 0 mm 1 mps 641 mmHg 74%
    04:00 +14°C° 0 mm 1 mps 641 mmHg 74%
    05:00 +14°C° 0 mm 1 mps 641 mmHg 74%
    06:00 +15°C° 0 mm 1 mps 641 mmHg 74%
    07:00 +19°C° 0 mm 1 mps 642 mmHg 64%
    08:00 +21°C° 0 mm 1 mps 644 mmHg 54%
    09:00 +24°C° 0 mm 1 mps 645 mmHg 44%
    10:00 +25°C° 0 mm 1 mps 645 mmHg 40%
    11:00 +26°C° 0 mm 1 mps 645 mmHg 37%
    12:00 +26°C° 0 mm 2 mps 645 mmHg 33%
    13:00 +26°C° 0 mm 1 mps 644 mmHg 36%
    14:00 +25°C° 0 mm 1 mps 644 mmHg 38%
    15:00 +25°C° 0 mm 1 mps 644 mmHg 40%
    16:00 +24°C° 0 mm 1 mps 643 mmHg 46%
    17:00 +22°C° 0 mm 1 mps 642 mmHg 52%
    18:00 +21°C° 0 mm 1 mps 642 mmHg 59%
    19:00 +19°C° 0 mm 1 mps 642 mmHg 60%
    20:00 +18°C° 0 mm 1 mps 642 mmHg 62%
    21:00 +16°C° 0 mm 1 mps 642 mmHg 63%
    22:00 +16°C° 0 mm 1 mps 641 mmHg 63%
    23:00 +15°C° 0 mm 1 mps 641 mmHg 62%

    Day after tomorrow, 25 August, Sunday

    Time Temperature Precipitation Wind Pressure Humidity
    00:00 +15°C° 0 mm 1 mps 641 mmHg 62%
    01:00 +15°C° 0 mm 1 mps 641 mmHg 61%
    02:00 +15°C° 0 mm 1 mps 641 mmHg 60%
    03:00 +14°C° 0 mm 1 mps 640 mmHg 59%
    04:00 +15°C° 0 mm 1 mps 641 mmHg 59%
    05:00 +15°C° 0 mm 1 mps 641 mmHg 59%
    06:00 +15°C° 0 mm 1 mps 641 mmHg 58%
    07:00 +19°C° 0 mm 1 mps 642 mmHg 52%
    08:00 +22°C° 0 mm 1 mps 643 mmHg 45%
    09:00 +23°C° 0 mm 0 mps 644 mmHg 39%
    10:00 +25°C° 0 mm 1 mps 644 mmHg 37%
    11:00 +26°C° 0 mm 1 mps 644 mmHg 35%
    12:00 +27°C° 0 mm 2 mps 644 mmHg 33%
    13:00 +26°C° 0 mm 2 mps 644 mmHg 36%
    14:00 +26°C° 0 mm 2 mps 643 mmHg 40%
    15:00 +25°C° 0 mm 2 mps 643 mmHg 44%
    16:00 +24°C° 0 mm 1 mps 642 mmHg 51%
    17:00 +22°C° 0 mm 1 mps 642 mmHg 59%
    18:00 +21°C° 0 mm 1 mps 641 mmHg 66%
    19:00 +19°C° 0 mm 1 mps 641 mmHg 69%
    20:00 +18°C° 0 mm 1 mps 641 mmHg 73%
    21:00 +16°C° 0 mm 1 mps 641 mmHg 76%
    22:00 +16°C° 0 mm 1 mps 641 mmHg 78%
    23:00 +15°C° 0 mm 1 mps 641 mmHg 79%

    26 August, Monday

    Time Temperature Precipitation Wind Pressure Humidity
    00:00 +15°C° 0 mm 1 mps 640 mmHg 81%
    01:00 +15°C° 0 mm 1 mps 640 mmHg 80%
    02:00 +15°C° 0 mm 1 mps 640 mmHg 80%
    03:00 +14°C° 0 mm 1 mps 640 mmHg 79%
    04:00 +15°C° 0 mm 1 mps 640 mmHg 78%
    05:00 +15°C° 0 mm 1 mps 640 mmHg 77%
    06:00 +15°C° 0 mm 1 mps 640 mmHg 76%
    07:00 +18°C° 0 mm 1 mps 641 mmHg 68%
    08:00 +21°C° 0 mm 1 mps 642 mmHg 60%
    09:00 +23°C° 0 mm 1 mps 643 mmHg 52%
    10:00 +24°C° 0 mm 1 mps 643 mmHg 48%
    11:00 +25°C° 0 mm 2 mps 643 mmHg 43%
    12:00 +26°C° 0 mm 2 mps 643 mmHg 39%
    13:00 +26°C° 0 mm 2 mps 642 mmHg 39%
    14:00 +25°C° 0 mm 2 mps 642 mmHg 39%
    15:00 +25°C° 0 mm 2 mps 642 mmHg 39%
    16:00 +24°C° 0 mm 2 mps 641 mmHg 45%
    17:00 +21°C° 0 mm 2 mps 640 mmHg 52%
    18:00 +20°C° 0 mm 1 mps 640 mmHg 59%
    19:00 +19°C° 0 mm 1 mps 640 mmHg 62%
    20:00 +16°C° 0 mm 1 mps 639 mmHg 66%
    21:00 +15°C° 0 mm 1 mps 639 mmHg 69%
    22:00 +15°C° 0 mm 1 mps 639 mmHg 68%
    23:00 +15°C° 0 mm 1 mps 639 mmHg 67%

    27 August, Tuesday

    Time Temperature Precipitation Wind Pressure Humidity
    00:00 +15°C° 0 mm 1 mps 639 mmHg 67%
    01:00 +14°C° 0 mm 1 mps 639 mmHg 68%
    02:00 +14°C° 0 mm 1 mps 639 mmHg 69%
    03:00 +14°C° 0 mm 1 mps 639 mmHg 70%
    04:00 +14°C° 0 mm 1 mps 639 mmHg 70%
    05:00 +13°C° 0 mm 0 mps 639 mmHg 71%
    06:00 +14°C° 0 mm 0 mps 640 mmHg 71%
    07:00 +16°C° 0 mm 1 mps 640 mmHg 65%
    08:00 +19°C° 0 mm 1 mps 641 mmHg 58%
    09:00 +20°C° 0 mm 2 mps 642 mmHg 52%
    10:00 +20°C° 0.1 mm 2 mps 642 mmHg 54%
    11:00 +20°C° 0.1 mm 2 mps 642 mmHg 56%
    12:00 +20°C° 0.1 mm 2 mps 642 mmHg 58%
    13:00 +20°C° 0.3 mm 1 mps 642 mmHg 67%
    14:00 +19°C° 0.3 mm 1 mps 641 mmHg 75%
    15:00 +16°C° 0.3 mm 1 mps 640 mmHg 84%
    16:00 +16°C° 0.4 mm 1 mps 640 mmHg 86%
    17:00 +16°C° 0.4 mm 1 mps 640 mmHg 88%
    18:00 +15°C° 0.4 mm 1 mps 640 mmHg 90%
    19:00 +15°C° 0.1 mm 1 mps 640 mmHg 91%
    20:00 +14°C° 0.1 mm 1 mps 641 mmHg 92%
    21:00 +14°C° 0.1 mm 1 mps 641 mmHg 94%
    22:00 +13°C° 0 mm 1 mps 641 mmHg 94%
    23:00 +13°C° 0 mm 1 mps 641 mmHg 94%

    28 August, Wednesday

    Time Temperature Precipitation Wind Pressure Humidity
    00:00 +13°C° 0 mm 1 mps 641 mmHg 94%
    01:00 +13°C° 0 mm 1 mps 641 mmHg 93%
    02:00 +12°C° 0 mm 1 mps 641 mmHg 92%
    03:00 +12°C° 0 mm 1 mps 640 mmHg 91%
    04:00 +12°C° 0 mm 1 mps 641 mmHg 89%
    05:00 +13°C° 0 mm 1 mps 641 mmHg 87%
    06:00 +13°C° 0 mm 1 mps 641 mmHg 85%
    07:00 +15°C° 0 mm 1 mps 642 mmHg 76%
    08:00 +19°C° 0 mm 1 mps 643 mmHg 67%
    09:00 +20°C° 0 mm 0 mps 644 mmHg 57%
    10:00 +23°C° 0 mm 1 mps 644 mmHg 51%
    11:00 +24°C° 0 mm 1 mps 645 mmHg 45%
    12:00 +26°C° 0 mm 1 mps 645 mmHg 39%
    13:00 +25°C° 0 mm 1 mps 645 mmHg 42%
    14:00 +25°C° 0 mm 1 mps 644 mmHg 44%
    15:00 +25°C° 0 mm 1 mps 644 mmHg 46%
    16:00 +23°C° 0 mm 1 mps 643 mmHg 54%
    17:00 +21°C° 0 mm 1 mps 643 mmHg 62%
    18:00 +20°C° 0 mm 1 mps 642 mmHg 70%
    19:00 +18°C° 0 mm 1 mps 642 mmHg 73%
    20:00 +16°C° 0 mm 1 mps 642 mmHg 75%
    21:00 +15°C° 0 mm 1 mps 642 mmHg 78%
    22:00 +15°C° 0 mm 1 mps 642 mmHg 74%
    23:00 +14°C° 0 mm 1 mps 642 mmHg 69%
    Show more